Time,TemperatureF,DewpointF,PressureIn,WindDirection,WindDirectionDegrees,WindSpeedMPH,WindSpeedGustMPH,Humidity,HourlyPrecipIn,Conditions,Clouds,dailyrainin,SoftwareType,DateUTC
2013-04-13 00:08:00,43.0,-99.9,29.85,North,-999,-999.0,-999.0,-999,-99.99,,,-99.99,,2013-04-13 07:08:00,
2013-04-13 00:16:00,43.0,-99.9,29.85,North,-999,-999.0,-999.0,-999,-99.99,,,-99.99,,2013-04-13 07:16:00,
2013-04-13 00:25:00,43.0,-99.9,29.85,North,-999,-999.0,-999.0,-999,-99.99,,,-99.99,,2013-04-13 07:25:00,
2013-04-13 00:37:00,44.0,-99.9,29.86,North,-999,-999.0,-999.0,-999,-99.99,,,-99.99,,2013-04-13 07:37:00,
2013-04-13 00:46:00,42.0,-99.9,29.86,North,-999,-999.0,-999.0,-999,-99.99,,,-99.99,,2013-04-13 07:46:00,
2013-04-13 00:58:00,43.0,-99.9,29.86,North,-999,-999.0,-999.0,-999,-99.99,,,-99.99,,2013-04-13 07:58:00,
2013-04-13 01:07:00,43.0,-99.9,29.88,North,-999,-999.0,-999.0,-999,-99.99,,,-99.99,,2013-04-13 08:07:00,
2013-04-13 01:17:00,43.0,-99.9,29.88,North,-999,-999.0,-999.0,-999,-99.99,,,-99.99,,2013-04-13 08:17:00,
2013-04-13 01:35:00,43.0,-99.9,29.88,North,-999,-999.0,-999.0,-999,-99.99,,,-99.99,,2013-04-13 08:35:00,
2013-04-13 01:47:00,43.0,-99.9,29.88,North,-999,-999.0,-999.0,-999,-99.99,,,-99.99,,2013-04-13 08:47:00,
2013-04-13 01:55:00,43.0,-99.9,29.88,North,-999,-999.0,-999.0,-999,-99.99,,,-99.99,,2013-04-13 08:55:00,
2013-04-13 02:06:00,43.0,-99.9,29.87,North,-999,-999.0,-999.0,-999,-99.99,,,-99.99,,2013-04-13 09:06:00,
2013-04-13 02:15:00,41.0,-99.9,29.88,North,-999,-999.0,-999.0,-999,-99.99,,,-99.99,,2013-04-13 09:15:00,
2013-04-13 02:25:00,42.0,-99.9,29.88,North,-999,-999.0,-999.0,-999,-99.99,,,-99.99,,2013-04-13 09:25:00,
2013-04-13 02:38:00,43.0,-99.9,29.88,North,-999,-999.0,-999.0,-999,-99.99,,,-99.99,,2013-04-13 09:38:00,
2013-04-13 02:53:00,44.0,-99.9,29.88,North,-999,-999.0,-999.0,-999,-99.99,,,-99.99,,2013-04-13 09:53:00,
2013-04-13 03:05:00,44.0,-99.9,29.89,North,-999,-999.0,-999.0,-999,-99.99,,,-99.99,,2013-04-13 10:05:00,
2013-04-13 03:16:00,44.0,-99.9,29.89,North,-999,-999.0,-999.0,-999,-99.99,,,-99.99,,2013-04-13 10:16:00,
2013-04-13 03:25:00,44.0,-99.9,29.89,North,-999,-999.0,-999.0,-999,-99.99,,,-99.99,,2013-04-13 10:25:00,
2013-04-13 03:38:00,44.0,-99.9,29.88,North,-999,-999.0,-999.0,-999,-99.99,,,-99.99,,2013-04-13 10:38:00,
2013-04-13 03:51:00,44.0,-99.9,29.89,North,-999,-999.0,-999.0,-999,-99.99,,,-99.99,,2013-04-13 10:51:00,
2013-04-13 04:08:00,44.0,-99.9,29.89,North,-999,-999.0,-999.0,-999,-99.99,,,-99.99,,2013-04-13 11:08:00,
2013-04-13 04:14:00,41.0,-99.9,29.91,North,-999,-999.0,-999.0,-999,-99.99,,,-99.99,,2013-04-13 11:14:00,
2013-04-13 04:24:00,42.0,-99.9,29.90,North,-999,-999.0,-999.0,-999,-99.99,,,-99.99,,2013-04-13 11:24:00,
2013-04-13 04:35:00,44.0,-99.9,29.90,North,-999,-999.0,-999.0,-999,-99.99,,,-99.99,,2013-04-13 11:35:00,
2013-04-13 04:47:00,44.0,-99.9,29.89,North,-999,-999.0,-999.0,-999,-99.99,,,-99.99,,2013-04-13 11:47:00,
2013-04-13 04:54:00,44.0,-99.9,29.89,North,-999,-999.0,-999.0,-999,-99.99,,,-99.99,,2013-04-13 11:54:00,
2013-04-13 05:09:00,42.0,-99.9,29.91,North,-999,-999.0,-999.0,-999,-99.99,,,-99.99,,2013-04-13 12:09:00,
2013-04-13 05:17:00,43.0,-99.9,29.90,North,-999,-999.0,-999.0,-999,-99.99,,,-99.99,,2013-04-13 12:17:00,
2013-04-13 05:25:00,43.0,-99.9,29.89,North,-999,-999.0,-999.0,-999,-99.99,,,-99.99,,2013-04-13 12:25:00,
2013-04-13 05:37:00,43.0,-99.9,29.89,North,-999,-999.0,-999.0,-999,-99.99,,,-99.99,,2013-04-13 12:37:00,
2013-04-13 05:49:00,43.0,-99.9,29.89,North,-999,-999.0,-999.0,-999,-99.99,,,-99.99,,2013-04-13 12:49:00,
2013-04-13 06:08:00,44.0,-99.9,29.89,North,-999,-999.0,-999.0,-999,-99.99,,,-99.99,,2013-04-13 13:08:00,
2013-04-13 06:16:00,44.0,-99.9,29.89,North,-999,-999.0,-999.0,-999,-99.99,,,-99.99,,2013-04-13 13:16:00,
2013-04-13 06:31:00,41.0,-99.9,29.90,North,-999,-999.0,-999.0,-999,-99.99,,,-99.99,,2013-04-13 13:31:00,
2013-04-13 06:37:00,43.0,-99.9,29.88,North,-999,-999.0,-999.0,-999,-99.99,,,-99.99,,2013-04-13 13:37:00,
2013-04-13 06:49:00,42.0,-99.9,29.90,North,-999,-999.0,-999.0,-999,-99.99,,,-99.99,,2013-04-13 13:49:00,
2013-04-13 06:58:00,42.0,-99.9,29.89,North,-999,-999.0,-999.0,-999,-99.99,,,-99.99,,2013-04-13 13:58:00,
2013-04-13 07:05:00,43.0,-99.9,29.88,North,-999,-999.0,-999.0,-999,-99.99,,,-99.99,,2013-04-13 14:05:00,
2013-04-13 07:15:00,43.0,-99.9,29.88,North,-999,-999.0,-999.0,-999,-99.99,,,-99.99,,2013-04-13 14:15:00,
2013-04-13 07:24:00,44.0,-99.9,29.88,North,-999,-999.0,-999.0,-999,-99.99,,,-99.99,,2013-04-13 14:24:00,
2013-04-13 07:39:00,42.0,-99.9,29.88,North,-999,-999.0,-999.0,-999,-99.99,,,-99.99,,2013-04-13 14:39:00,
2013-04-13 07:48:00,43.0,-99.9,29.88,North,-999,-999.0,-999.0,-999,-99.99,,,-99.99,,2013-04-13 14:48:00,
2013-04-13 08:00:00,44.0,-99.9,29.88,North,-999,-999.0,-999.0,-999,-99.99,,,-99.99,,2013-04-13 15:00:00,
2013-04-13 08:06:00,42.0,-99.9,29.88,North,-999,-999.0,-999.0,-999,-99.99,,,-99.99,,2013-04-13 15:06:00,
2013-04-13 08:15:00,42.0,-99.9,29.88,North,-999,-999.0,-999.0,-999,-99.99,,,-99.99,,2013-04-13 15:15:00,
2013-04-13 08:30:00,42.0,-99.9,29.88,North,-999,-999.0,-999.0,-999,-99.99,,,-99.99,,2013-04-13 15:30:00,
2013-04-13 08:38:00,43.0,-99.9,29.88,North,-999,-999.0,-999.0,-999,-99.99,,,-99.99,,2013-04-13 15:38:00,
2013-04-13 08:45:00,44.0,-99.9,29.88,North,-999,-999.0,-999.0,-999,-99.99,,,-99.99,,2013-04-13 15:45:00,
2013-04-13 08:59:00,45.0,-99.9,29.88,North,-999,-999.0,-999.0,-999,-99.99,,,-99.99,,2013-04-13 15:59:00,
2013-04-13 09:08:00,44.0,-99.9,29.88,North,-999,-999.0,-999.0,-999,-99.99,,,-99.99,,2013-04-13 16:08:00,
2013-04-13 09:16:00,45.0,-99.9,29.88,North,-999,-999.0,-999.0,-999,-99.99,,,-99.99,,2013-04-13 16:16:00,
2013-04-13 09:25:00,44.0,-99.9,29.88,North,-999,-999.0,-999.0,-999,-99.99,,,-99.99,,2013-04-13 16:25:00,
2013-04-13 09:37:00,45.0,-99.9,29.88,North,-999,-999.0,-999.0,-999,-99.99,,,-99.99,,2013-04-13 16:37:00,
2013-04-13 09:48:00,44.0,-99.9,29.89,North,-999,-999.0,-999.0,-999,-99.99,,,-99.99,,2013-04-13 16:48:00,
2013-04-13 09:59:00,44.0,-99.9,29.88,North,-999,-999.0,-999.0,-999,-99.99,,,-99.99,,2013-04-13 16:59:00,
2013-04-13 10:08:00,44.0,-99.9,29.89,North,-999,-999.0,-999.0,-999,-99.99,,,-99.99,,2013-04-13 17:08:00,
2013-04-13 10:39:00,45.0,-99.9,29.89,North,-999,-999.0,-999.0,-999,-99.99,,,-99.99,,2013-04-13 17:39:00,
2013-04-13 10:45:00,44.0,-99.9,29.89,North,-999,-999.0,-999.0,-999,-99.99,,,-99.99,,2013-04-13 17:45:00,
2013-04-13 11:04:00,45.0,-99.9,29.88,North,-999,-999.0,-999.0,-999,-99.99,,,-99.99,,2013-04-13 18:04:00,
2013-04-13 11:25:00,45.0,-99.9,29.89,North,-999,-999.0,-999.0,-999,-99.99,,,-99.99,,2013-04-13 18:25:00,
2013-04-13 11:33:00,46.0,-99.9,29.89,North,-999,-999.0,-999.0,-999,-99.99,,,-99.99,,2013-04-13 18:33:00,
2013-04-13 11:42:00,45.0,-99.9,29.90,North,-999,-999.0,-999.0,-999,-99.99,,,-99.99,,2013-04-13 18:42:00,
2013-04-13 11:53:00,44.0,-99.9,29.90,North,-999,-999.0,-999.0,-999,-99.99,,,-99.99,,2013-04-13 18:53:00,
2013-04-13 12:03:00,45.0,-99.9,29.90,North,-999,-999.0,-999.0,-999,-99.99,,,-99.99,,2013-04-13 19:03:00,
2013-04-13 12:12:00,45.0,-99.9,29.91,North,-999,-999.0,-999.0,-999,-99.99,,,-99.99,,2013-04-13 19:12:00,
2013-04-13 12:23:00,44.0,-99.9,29.91,North,-999,-999.0,-999.0,-999,-99.99,,,-99.99,,2013-04-13 19:23:00,
2013-04-13 12:33:00,45.0,-99.9,29.91,North,-999,-999.0,-999.0,-999,-99.99,,,-99.99,,2013-04-13 19:33:00,
2013-04-13 12:42:00,45.0,-99.9,29.91,North,-999,-999.0,-999.0,-999,-99.99,,,-99.99,,2013-04-13 19:42:00,
2013-04-13 12:53:00,46.0,-99.9,29.91,North,-999,-999.0,-999.0,-999,-99.99,,,-99.99,,2013-04-13 19:53:00,
2013-04-13 13:02:00,45.0,-99.9,29.91,North,-999,-999.0,-999.0,-999,-99.99,,,-99.99,,2013-04-13 20:02:00,
2013-04-13 13:13:00,46.0,-99.9,29.91,North,-999,-999.0,-999.0,-999,-99.99,,,-99.99,,2013-04-13 20:13:00,
2013-04-13 13:22:00,45.0,-99.9,29.92,North,-999,-999.0,-999.0,-999,-99.99,,,-99.99,,2013-04-13 20:22:00,
2013-04-13 13:33:00,46.0,-99.9,29.92,North,-999,-999.0,-999.0,-999,-99.99,,,-99.99,,2013-04-13 20:33:00,
2013-04-13 13:42:00,46.0,-99.9,29.92,North,-999,-999.0,-999.0,-999,-99.99,,,-99.99,,2013-04-13 20:42:00,
2013-04-13 13:53:00,46.0,-99.9,29.92,North,-999,-999.0,-999.0,-999,-99.99,,,-99.99,,2013-04-13 20:53:00,
2013-04-13 14:02:00,47.0,-99.9,29.92,North,-999,-999.0,-999.0,-999,-99.99,,,-99.99,,2013-04-13 21:02:00,
2013-04-13 14:12:00,47.0,-99.9,29.92,North,-999,-999.0,-999.0,-999,-99.99,,,-99.99,,2013-04-13 21:12:00,
2013-04-13 14:22:00,47.0,-99.9,29.93,North,-999,-999.0,-999.0,-999,-99.99,,,-99.99,,2013-04-13 21:22:00,
2013-04-13 14:33:00,44.0,-99.9,29.93,North,-999,-999.0,-999.0,-999,-99.99,,,-99.99,,2013-04-13 21:33:00,
2013-04-13 14:43:00,44.0,-99.9,29.93,North,-999,-999.0,-999.0,-999,-99.99,,,-99.99,,2013-04-13 21:43:00,
2013-04-13 14:53:00,46.0,-99.9,29.93,North,-999,-999.0,-999.0,-999,-99.99,,,-99.99,,2013-04-13 21:53:00,
2013-04-13 15:03:00,47.0,-99.9,29.94,North,-999,-999.0,-999.0,-999,-99.99,,,-99.99,,2013-04-13 22:03:00,
2013-04-13 15:13:00,47.0,-99.9,29.94,North,-999,-999.0,-999.0,-999,-99.99,,,-99.99,,2013-04-13 22:13:00,
2013-04-13 15:23:00,46.0,-99.9,29.95,North,-999,-999.0,-999.0,-999,-99.99,,,-99.99,,2013-04-13 22:23:00,
2013-04-13 15:33:00,45.0,-99.9,29.96,North,-999,-999.0,-999.0,-999,-99.99,,,-99.99,,2013-04-13 22:33:00,
2013-04-13 15:42:00,46.0,-99.9,29.95,North,-999,-999.0,-999.0,-999,-99.99,,,-99.99,,2013-04-13 22:42:00,
2013-04-13 15:53:00,46.0,-99.9,29.96,North,-999,-999.0,-999.0,-999,-99.99,,,-99.99,,2013-04-13 22:53:00,
2013-04-13 16:02:00,47.0,-99.9,29.95,North,-999,-999.0,-999.0,-999,-99.99,,,-99.99,,2013-04-13 23:02:00,
2013-04-13 16:12:00,47.0,-99.9,29.95,North,-999,-999.0,-999.0,-999,-99.99,,,-99.99,,2013-04-13 23:12:00,
2013-04-13 16:22:00,47.0,-99.9,29.95,North,-999,-999.0,-999.0,-999,-99.99,,,-99.99,,2013-04-13 23:22:00,
2013-04-13 16:33:00,47.0,-99.9,29.96,North,-999,-999.0,-999.0,-999,-99.99,,,-99.99,,2013-04-13 23:33:00,
2013-04-13 16:43:00,47.0,-99.9,29.95,North,-999,-999.0,-999.0,-999,-99.99,,,-99.99,,2013-04-13 23:43:00,
2013-04-13 16:53:00,47.0,-99.9,29.95,North,-999,-999.0,-999.0,-999,-99.99,,,-99.99,,2013-04-13 23:53:00,
2013-04-13 17:03:00,47.0,-99.9,29.95,North,-999,-999.0,-999.0,-999,-99.99,,,-99.99,,2013-04-14 00:03:00,
2013-04-13 17:12:00,46.0,-99.9,29.95,North,-999,-999.0,-999.0,-999,-99.99,,,-99.99,,2013-04-14 00:12:00,
2013-04-13 17:22:00,47.0,-99.9,29.95,North,-999,-999.0,-999.0,-999,-99.99,,,-99.99,,2013-04-14 00:22:00,
2013-04-13 17:32:00,47.0,-99.9,29.96,North,-999,-999.0,-999.0,-999,-99.99,,,-99.99,,2013-04-14 00:32:00,
2013-04-13 17:42:00,47.0,-99.9,29.96,North,-999,-999.0,-999.0,-999,-99.99,,,-99.99,,2013-04-14 00:42:00,
2013-04-13 17:52:00,47.0,-99.9,29.96,North,-999,-999.0,-999.0,-999,-99.99,,,-99.99,,2013-04-14 00:52:00,
2013-04-13 18:02:00,47.0,-99.9,29.96,North,-999,-999.0,-999.0,-999,-99.99,,,-99.99,,2013-04-14 01:02:00,
2013-04-13 18:13:00,47.0,-99.9,29.97,North,-999,-999.0,-999.0,-999,-99.99,,,-99.99,,2013-04-14 01:13:00,
2013-04-13 18:23:00,47.0,-99.9,29.97,North,-999,-999.0,-999.0,-999,-99.99,,,-99.99,,2013-04-14 01:23:00,
2013-04-13 18:33:00,47.0,-99.9,29.98,North,-999,-999.0,-999.0,-999,-99.99,,,-99.99,,2013-04-14 01:33:00,
2013-04-13 18:43:00,47.0,-99.9,29.98,North,-999,-999.0,-999.0,-999,-99.99,,,-99.99,,2013-04-14 01:43:00,
2013-04-13 18:53:00,47.0,-99.9,29.98,North,-999,-999.0,-999.0,-999,-99.99,,,-99.99,,2013-04-14 01:53:00,
2013-04-13 19:03:00,46.0,-99.9,29.98,North,-999,-999.0,-999.0,-999,-99.99,,,-99.99,,2013-04-14 02:03:00,
2013-04-13 19:13:00,46.0,-99.9,29.98,North,-999,-999.0,-999.0,-999,-99.99,,,-99.99,,2013-04-14 02:13:00,
2013-04-13 19:23:00,46.0,-99.9,29.98,North,-999,-999.0,-999.0,-999,-99.99,,,-99.99,,2013-04-14 02:23:00,
2013-04-13 19:33:00,46.0,-99.9,29.97,North,-999,-999.0,-999.0,-999,-99.99,,,-99.99,,2013-04-14 02:33:00,
2013-04-13 19:43:00,46.0,-99.9,29.97,North,-999,-999.0,-999.0,-999,-99.99,,,-99.99,,2013-04-14 02:43:00,
2013-04-13 19:53:00,46.0,-99.9,29.97,North,-999,-999.0,-999.0,-999,-99.99,,,-99.99,,2013-04-14 02:53:00,
2013-04-13 20:03:00,47.0,-99.9,29.97,North,-999,-999.0,-999.0,-999,-99.99,,,-99.99,,2013-04-14 03:03:00,
2013-04-13 20:13:00,47.0,-99.9,29.97,North,-999,-999.0,-999.0,-999,-99.99,,,-99.99,,2013-04-14 03:13:00,
2013-04-13 20:22:00,47.0,-99.9,29.97,North,-999,-999.0,-999.0,-999,-99.99,,,-99.99,,2013-04-14 03:22:00,
2013-04-13 20:33:00,47.0,-99.9,29.97,North,-999,-999.0,-999.0,-999,-99.99,,,-99.99,,2013-04-14 03:33:00,
2013-04-13 20:43:00,46.0,-99.9,29.97,North,-999,-999.0,-999.0,-999,-99.99,,,-99.99,,2013-04-14 03:43:00,
2013-04-13 20:53:00,46.0,-99.9,29.97,North,-999,-999.0,-999.0,-999,-99.99,,,-99.99,,2013-04-14 03:53:00,
2013-04-13 21:03:00,46.0,-99.9,29.98,North,-999,-999.0,-999.0,-999,-99.99,,,-99.99,,2013-04-14 04:03:00,
2013-04-13 21:13:00,46.0,-99.9,29.98,North,-999,-999.0,-999.0,-999,-99.99,,,-99.99,,2013-04-14 04:13:00,
2013-04-13 21:23:00,46.0,-99.9,29.99,North,-999,-999.0,-999.0,-999,-99.99,,,-99.99,,2013-04-14 04:23:00,
2013-04-13 21:33:00,46.0,-99.9,29.99,North,-999,-999.0,-999.0,-999,-99.99,,,-99.99,,2013-04-14 04:33:00,
2013-04-13 21:43:00,46.0,-99.9,29.99,North,-999,-999.0,-999.0,-999,-99.99,,,-99.99,,2013-04-14 04:43:00,
2013-04-13 21:53:00,46.0,-99.9,30.00,North,-999,-999.0,-999.0,-999,-99.99,,,-99.99,,2013-04-14 04:53:00,
2013-04-13 22:03:00,46.0,-99.9,30.00,North,-999,-999.0,-999.0,-999,-99.99,,,-99.99,,2013-04-14 05:03:00,
2013-04-13 22:12:00,46.0,-99.9,30.00,North,-999,-999.0,-999.0,-999,-99.99,,,-99.99,,2013-04-14 05:12:00,
2013-04-13 22:23:00,46.0,-99.9,30.00,North,-999,-999.0,-999.0,-999,-99.99,,,-99.99,,2013-04-14 05:23:00,
2013-04-13 22:32:00,46.0,-99.9,30.00,North,-999,-999.0,-999.0,-999,-99.99,,,-99.99,,2013-04-14 05:32:00,
2013-04-13 22:43:00,46.0,-99.9,30.01,North,-999,-999.0,-999.0,-999,-99.99,,,-99.99,,2013-04-14 05:43:00,
2013-04-13 22:53:00,46.0,-99.9,30.00,North,-999,-999.0,-999.0,-999,-99.99,,,-99.99,,2013-04-14 05:53:00,
2013-04-13 23:02:00,46.0,-99.9,30.00,North,-999,-999.0,-999.0,-999,-99.99,,,-99.99,,2013-04-14 06:02:00,
2013-04-13 23:12:00,45.0,-99.9,30.00,North,-999,-999.0,-999.0,-999,-99.99,,,-99.99,,2013-04-14 06:12:00,
2013-04-13 23:22:00,44.0,-99.9,30.00,North,-999,-999.0,-999.0,-999,-99.99,,,-99.99,,2013-04-14 06:22:00,
2013-04-13 23:32:00,43.0,-99.9,30.00,North,-999,-999.0,-999.0,-999,-99.99,,,-99.99,,2013-04-14 06:32:00,
2013-04-13 23:42:00,43.0,-99.9,30.01,North,-999,-999.0,-999.0,-999,-99.99,,,-99.99,,2013-04-14 06:42:00,
2013-04-13 23:53:00,43.0,-99.9,30.01,North,-999,-999.0,-999.0,-999,-99.99,,,-99.99,,2013-04-14 06:53:00,